Victoria, TX

8:20 AM CST on February 25, 2018 (GMT -0600)
Victoria Regional

Weather History for KVCT - November, 2013

Change the Weather History Date:

Saturday, November 23, 2013

  Actual Average Record
Temperature  
Mean Temperature 44 °F 60 °F  
Max Temperature 48 °F 72 °F 89 °F (1924)
Min Temperature 40 °F 49 °F 30 °F (1975)
Degree Days  
Heating Degree Days 21 6  
Month to date heating degree days 77 89  
Since 1 July heating degree days 81 112  
Cooling Degree Days 0 2  
Month to date cooling degree days 80 70  
Year to date cooling degree days 3402 3113  
Moisture  
Dew Point 41 °F    
Average Humidity 89    
Maximum Humidity 96    
Minimum Humidity 82    
Precipitation  
Precipitation T in 0.10 in 1.39 in (1952)
Month to date precipitation 0.74 2.54  
Year to date precipitation 24.06 38.21  
Snow  
Snow 0.00 in - - ()
Month to date snowfall 0.0  
Since 1 July snowfall 0.0  
Since 1 September snowfall 0.0  
Snow Depth 0.00 in    
Sea Level Pressure  
Sea Level Pressure 30.35 in    
Wind  
Wind Speed 15 mph (North)    
Max Wind Speed 24 mph    
Max Gust Speed 30 mph    
Visibility 8 miles    
Events Rain    
T = Trace of Precipitation, MM = Missing Value Source: NWS Daily Summary

Daily Weather History Graph

Daily Weather History Graph

Search for Another Location

Airport or City:

Trip Planner

Search our weather history database for the weather conditions in past years. The results will help you decide how hot, cold, wet, or windy it might be!

Date:

Astronomy

Nov. 23, 2013 Rise Set
Actual Time 6:57 AM CST 5:30 PM CST
Civil Twilight 6:32 AM CST 5:56 PM CST
Nautical Twilight 6:03 AM CST 6:25 PM CST
Astronomical Twilight 5:34 AM CST 6:53 PM CST
Moon 10:49 PM CST (11/23) 11:23 AM CST (11/23)
Length of Visible Light 11h 24m
Length of Day
10h 33m
Waning Gibbous, 69% of the Moon is Illuminated
Nov 23
Waning Gibbous
Nov 25
Last Quarter
Dec 2
New
Dec 9
First Quarter
Dec 17
Full

Hourly Weather History & Observations

Time (CST) Temp. Windchill Dew Point Humidity Pressure Visibility Wind Dir Wind Speed Gust Speed Precip Events Conditions
12:51 AM 39.9 °F 31.4 °F 37.9 °F 93% 30.31 in 6.0 mi NNW 16.1 mph 24.2 mph N/A   Overcast
1:51 AM 39.9 °F 31.8 °F 37.9 °F 93% 30.32 in 4.0 mi North 15.0 mph - N/A   Overcast
2:51 AM 41.0 °F 32.5 °F 39.0 °F 93% 30.31 in 4.0 mi North 17.3 mph 24.2 mph 0.00 in   Overcast
3:51 AM 41.0 °F 33.1 °F 39.0 °F 93% 30.30 in 6.0 mi North 15.0 mph 25.3 mph N/A   Overcast
4:51 AM 42.1 °F 35.2 °F 39.9 °F 92% 30.30 in 5.0 mi NNW 12.7 mph 21.9 mph N/A   Overcast
5:51 AM 42.1 °F 34.9 °F 39.0 °F 89% 30.32 in 8.0 mi North 13.8 mph 21.9 mph N/A   Overcast
6:51 AM 43.0 °F 35.7 °F 39.9 °F 89% 30.34 in 5.0 mi North 15.0 mph 23.0 mph 0.00 in Rain Light Rain
7:51 AM 43.0 °F 36.0 °F 39.9 °F 89% 30.37 in 4.0 mi North 13.8 mph 23.0 mph 0.00 in Rain Light Rain
8:51 AM 43.0 °F 35.4 °F 41.0 °F 93% 30.38 in 4.0 mi North 16.1 mph 25.3 mph 0.00 in Rain Light Rain
9:51 AM 43.0 °F 35.7 °F 41.0 °F 93% 30.39 in 4.0 mi NNW 15.0 mph 25.3 mph 0.00 in   Overcast
10:51 AM 45.0 °F 37.6 °F 41.0 °F 86% 30.39 in 10.0 mi North 17.3 mph 24.2 mph N/A   Overcast
11:02 AM 44.6 °F 37.8 °F 41.0 °F 87% 30.38 in 10.0 mi North 15.0 mph 23.0 mph N/A   Overcast
11:51 AM 46.0 °F 39.0 °F 41.0 °F 83% 30.37 in 10.0 mi North 17.3 mph 24.2 mph N/A   Overcast
12:51 PM 46.9 °F - 41.0 °F 80% 30.35 in 10.0 mi North 23.0 mph 29.9 mph N/A   Overcast
1:51 PM 46.9 °F - 41.0 °F 80% 30.33 in 10.0 mi North 16.1 mph 24.2 mph N/A   Overcast
2:51 PM 46.9 °F - 41.0 °F 80% 30.32 in 10.0 mi North 12.7 mph - N/A   Overcast
3:51 PM 46.9 °F - 41.0 °F 80% 30.32 in 10.0 mi North 17.3 mph 26.5 mph N/A   Overcast
4:51 PM 46.0 °F 39.9 °F 41.0 °F 83% 30.34 in 10.0 mi North 13.8 mph 20.7 mph N/A   Overcast
5:51 PM 46.0 °F 40.6 °F 42.1 °F 86% 30.35 in 10.0 mi North 11.5 mph - N/A   Overcast
6:51 PM 46.0 °F 39.9 °F 41.0 °F 83% 30.35 in 10.0 mi North 13.8 mph - N/A   Overcast
7:51 PM 46.0 °F 39.6 °F 43.0 °F 89% 30.37 in 9.0 mi North 15.0 mph - N/A   Overcast
8:51 PM 46.9 °F - 43.0 °F 86% 30.38 in 9.0 mi North 12.7 mph 21.9 mph N/A   Overcast
9:51 PM 46.9 °F - 44.1 °F 90% 30.38 in 6.0 mi North 11.5 mph - N/A   Overcast
10:28 PM 46.4 °F 41.9 °F 44.6 °F 93% 30.38 in 6.0 mi North 9.2 mph - N/A   Overcast
10:51 PM 48.0 °F - 45.0 °F 89% 30.38 in 10.0 mi North 6.9 mph - N/A   Overcast
11:20 PM 48.2 °F - 44.6 °F 87% 30.38 in 6.0 mi North 9.2 mph - N/A   Overcast
11:51 PM 48.0 °F - 45.0 °F 89% 30.38 in 5.0 mi North 9.2 mph - N/A   Overcast